Dunkirk, NY

6:07 PM EDT on April 23, 2017 (GMT -0400)
Chautauqua County-Dunkirk

Weather History for KDKK - November, 2012

Change the Weather History Date:

Tuesday, November 6, 2012

  Actual Average Record
Temperature  
Mean Temperature 34 °F -  
Max Temperature 41 °F 50 °F 72 °F (1948)
Min Temperature 27 °F 36 °F 10 °F (1951)
Degree Days  
Heating Degree Days 30    
Moisture  
Dew Point 22 °F    
Average Humidity 63    
Maximum Humidity 78    
Minimum Humidity 49    
Precipitation  
Precipitation 0.00 in - - ()
Sea Level Pressure  
Sea Level Pressure 30.13 in    
Wind  
Wind Speed 5 mph (ESE)    
Max Wind Speed 8 mph    
Max Gust Speed -    
Visibility 10 miles    
Events      
Averages and records for this station are not official NWS values.
T = Trace of Precipitation, MM = Missing Value Source: NWS Daily Summary

Daily Weather History Graph

Daily Weather History Graph

Search for Another Location

Airport or City:

Trip Planner

Search our weather history database for the weather conditions in past years. The results will help you decide how hot, cold, wet, or windy it might be!

Date:

Astronomy

Nov. 06, 2012 Rise Set
Actual Time 6:57 AM EST 5:03 PM EST
Civil Twilight 6:27 AM EST 5:33 PM EST
Nautical Twilight 5:54 AM EST 6:06 PM EST
Astronomical Twilight 5:21 AM EST 6:39 PM EST
Moon 11:42 PM EST (11/6) 12:47 PM EST (11/6)
Length of Visible Light 11h 05m
Length of Day
10h 05m
Waning Gibbous, 53% of the Moon is Illuminated
Nov 6
Waning Gibbous
Nov 6
Last Quarter
Nov 13
New
Nov 20
First Quarter
Nov 28
Full

Hourly Weather History & Observations

Time (EST) Temp. Windchill Dew Point Humidity Pressure Visibility Wind Dir Wind Speed Gust Speed Precip Events Conditions
12:53 AM 33.1 °F 27.7 °F 23.0 °F 66% 30.20 in 10.0 mi East 5.8 mph - N/A   Overcast
1:53 AM 33.1 °F 27.7 °F 23.0 °F 66% 30.20 in 10.0 mi ESE 5.8 mph - N/A   Overcast
2:53 AM 32.0 °F 27.5 °F 21.9 °F 66% 30.19 in 10.0 mi SE 4.6 mph - N/A   Overcast
3:53 AM 32.0 °F 26.4 °F 21.0 °F 64% 30.19 in 10.0 mi SSE 5.8 mph - N/A   Overcast
4:53 AM 32.0 °F 25.6 °F 21.0 °F 64% 30.19 in 10.0 mi ESE 6.9 mph - N/A   Overcast
5:53 AM 33.1 °F - 19.9 °F 59% 30.18 in 10.0 mi Calm Calm - N/A   Overcast
6:53 AM 32.0 °F - 21.9 °F 66% 30.18 in 10.0 mi Calm Calm - N/A   Overcast
7:53 AM 33.1 °F 26.9 °F 21.0 °F 61% 30.19 in 10.0 mi ESE 6.9 mph - N/A   Overcast
8:53 AM 33.1 °F 27.7 °F 19.9 °F 59% 30.19 in 10.0 mi SSE 5.8 mph - N/A   Overcast
9:53 AM 34.0 °F 27.2 °F 19.9 °F 56% 30.19 in 10.0 mi SSE 8.1 mph - N/A   Overcast
10:53 AM 35.1 °F 29.3 °F 21.0 °F 57% 30.18 in 10.0 mi South 6.9 mph - N/A   Overcast
11:53 AM 35.1 °F 32.2 °F 21.0 °F 57% 30.17 in 10.0 mi South 3.5 mph - N/A   Overcast
12:53 PM 37.0 °F 32.4 °F 21.0 °F 52% 30.13 in 10.0 mi Variable 5.8 mph - N/A   Partly Cloudy
1:53 PM 37.9 °F 33.5 °F 21.0 °F 51% 30.11 in 10.0 mi SE 5.8 mph - N/A   Partly Cloudy
2:53 PM 41.0 °F 38.0 °F 23.0 °F 49% 30.09 in 10.0 mi East 4.6 mph - N/A   Clear
3:53 PM 39.9 °F 34.5 °F 23.0 °F 51% 30.08 in 10.0 mi ENE 8.1 mph - N/A   Clear
4:53 PM 37.0 °F 31.6 °F 21.9 °F 54% 30.07 in 10.0 mi NE 6.9 mph - N/A   Clear
5:53 PM 33.1 °F 27.7 °F 23.0 °F 66% 30.07 in 10.0 mi ENE 5.8 mph - N/A   Clear
6:53 PM 32.0 °F 25.6 °F 23.0 °F 69% 30.08 in 10.0 mi East 6.9 mph - N/A   Clear
7:53 PM 30.0 °F 24.1 °F 21.9 °F 72% 30.07 in 10.0 mi ENE 5.8 mph - N/A   Clear
8:53 PM 30.0 °F 24.1 °F 21.9 °F 72% 30.06 in 10.0 mi ENE 5.8 mph - N/A   Clear
9:53 PM 28.0 °F - 21.9 °F 78% 30.07 in 10.0 mi Calm Calm - N/A   Clear
10:53 PM 28.0 °F 22.8 °F 21.9 °F 78% 30.05 in 10.0 mi North 4.6 mph - N/A   Clear
11:53 PM 27.0 °F 23.0 °F 21.0 °F 78% 30.04 in 10.0 mi NE 3.5 mph - N/A   Clear